Location: Darcey
(47.5515°N, 4.5683°E)
Time: 01:39:58
(UTC+00:00)

Daily predictions for brighter satellites

Satellite Brightness Start Highest point End
(mag) Time Altitude Azimuth Time Altitude Azimuth Time Altitude Azimuth
SL-16 R/B 3.9 01:04:18 32° N 01:04:18 32° N 01:07:25 10° NNW
ADEOS II 4.3 01:02:07 10° NE 01:04:24 19° ENE 01:04:24 19° ENE
Cosmos 1697 Rocket 4.5 01:14:51 27° NE 01:14:51 27° NE 01:17:33 10° NE
Cosmos 1980 Rocket 4.1 01:20:37 24° ENE 01:20:37 24° ENE 01:23:39 10° NE
Cosmos 2263 Rocket 4.1 01:15:59 10° N 01:20:42 26° NE 01:25:24 10° ESE
USA 234 4.1 01:20:21 10° E 01:26:28 44° NNE 01:28:11 37° NNW
Resurs 1-4 Rocket 3.6 01:49:14 10° N 01:51:58 31° N 01:51:58 31° N
CZ-2D R/B 3.6 01:52:26 10° N 01:55:14 31° N 01:55:14 31° N
Nadezhda 3 Rocket 4.3 02:01:33 63° NE 02:01:33 63° NE 02:06:49 10° NNE
SJ 16-02 3.6 02:01:11 10° N 02:03:00 21° NNE 02:03:00 21° NNE
Gbstr 26 Del rocket 4.4 02:06:54 73° NW 02:07:49 87° NNE 02:15:31 10° ESE
Lacrosse 5 3.0 02:13:50 41° NNE 02:13:50 41° NNE 02:17:19 10° NE
ATLAS 5 CENTAUR R/B 3.9 02:16:15 18° NNW 02:16:15 18° NNW 02:19:13 10° NNE
Cosmos 2278 3.9 02:23:24 68° NNE 02:23:24 68° NNE 02:28:21 10° NNE
ARIANE 5 R/B 3.1 02:20:43 10° NNE 02:25:30 52° E 02:25:30 52° E
Meteor 1-14 Rocket 4.4 02:20:31 10° N 02:25:32 68° NNE 02:25:32 68° NNE
IRS-P3 4.3 02:20:56 10° NNE 02:25:43 67° NE 02:25:43 67° NE
SL-4 R/B 4.2 02:27:59 24° ESE 02:27:59 24° ESE 02:30:42 10° E
Cosmos 2369 4.2 02:33:25 50° NNW 02:33:25 50° NNW 02:38:14 10° NNE
USA 305 4.4 02:34:11 35° NNE 02:34:11 35° NNE 02:36:58 10° ENE
USA 267 3.5 02:26:45 10° ENE 02:33:11 56° SE 02:34:08 52° SSE
NOSS 3-3 (A) 4.0 02:34:42 63° SSE 02:35:11 65° ESE 02:41:44 10° NE
NOSS 3-3 (C) 4.0 02:34:50 62° SSE 02:35:18 65° ESE 02:41:49 10° NE
IRS-1D 4.2 02:31:28 10° N 02:35:34 48° NNW 02:35:34 48° NNW
USA 306 4.2 02:38:23 37° NNE 02:38:23 37° NNE 02:41:20 10° ENE
ADEOS II 2.6 02:41:10 10° N 02:45:20 47° NNW 02:45:20 47° NNW
Cosmos 990 Rocket 4.4 02:43:38 10° NNW 02:48:49 63° ENE 02:53:59 10° SE
ATLAS 2AS CENTAUR R/B 3.6 02:41:40 10° NW 02:49:05 50° NE 02:55:54 10° ESE
IDEFIX/ARIANE 42P 2.8 02:44:56 10° NNE 02:50:12 68° ESE 02:51:13 55° SSE
Cosmos 921 Rocket 3.5 02:52:55 55° NE 02:52:55 55° NE 02:56:19 10° NNE
Cosmos 2360 Rocket 4.3 02:48:38 10° SSE 02:52:49 22° E 02:57:01 10° NE
Cosmos 1697 Rocket 3.6 02:56:36 34° NW 02:56:36 34° NW 03:01:25 10° NNE
ERS-1 4.4 02:55:09 10° NNE 03:00:20 78° WNW 03:00:37 75° WSW
Cosmos 1980 Rocket 2.4 03:02:25 51° WNW 03:02:35 51° WNW 03:08:07 10° NNE
Cosmos 192 4.5 03:03:16 58° NW 03:03:16 58° NW 03:07:48 10° NNE
Cosmos 2263 Rocket 2.1 02:59:29 10° NNW 03:05:07 66° WSW 03:10:43 10° SSE
USA 307 3.8 03:06:10 40° NNW 03:06:15 40° NNW 03:10:17 10° ENE
Meteor 1-11 Rocket 4.2 03:00:39 10° N 03:06:23 61° ENE 03:11:57 10° SSE
USA 234 3.3 03:02:31 10° ESE 03:09:04 81° NNE 03:15:31 11° NW
Cosmos 1844 Rocket 4.2 03:04:22 10° NNW 03:09:36 37° NE 03:14:48 10° ESE
USA 308 3.8 03:09:21 39° NNW 03:09:36 39° NNW 03:13:38 10° ENE
Cosmos 44 3.7 03:10:35 45° NW 03:10:35 45° NW 03:14:56 10° NNE
Cosmos 2322 Rocket 2.8 03:08:23 27° S 03:11:20 53° ESE 03:16:53 10° NE
Meteor 1-4 Rocket 3.0 03:13:45 59° ENE 03:13:45 59° ENE 03:16:54 10° NNE
Cosmos 1666 3.1 03:12:34 10° N 03:16:22 62° ENE 03:18:11 28° SSE
Cosmos 1707 Rocket 4.3 03:14:39 22° SSE 03:17:09 50° E 03:21:23 10° NNE
CZ-2D R/B 3.4 03:13:24 10° N 03:17:38 69° WNW 03:17:38 69° WNW
Cosmos 1934 Rocket 4.2 03:15:05 10° NNW 03:20:45 42° W 03:20:56 42° W
Cosmos 1812 2.7 03:21:36 66° NNW 03:21:36 66° NNW 03:25:05 10° N
SL-16 R/B 2.2 03:20:03 34° SSW 03:22:36 78° ESE 03:28:18 10° NNE
CZ-3B R/B 3.0 03:21:33 35° NW 03:22:39 43° N 03:31:57 10° ENE
USA 276 2.7 03:25:21 57° NE 03:25:21 57° NE 03:28:11 10° E
COSMOS 2441 4.4 03:20:29 10° NNE 03:25:26 85° ESE 03:27:54 30° S
Cosmos 1536 3.3 03:24:38 10° N 03:28:42 62° ENE 03:32:43 10° SSE
Cosmos 1238 Rocket 4.3 03:23:20 10° NNW 03:29:19 40° W 03:30:02 38° WSW
ATLAS CENTAUR R/B 4.0 03:19:32 10° WNW 03:30:58 49° NNE 03:35:27 10° E
Cosmos 1733 Rocket 3.9 03:26:51 10° N 03:31:06 50° ENE 03:35:18 10° SSE
Spot 4 Rocket 4.0 03:27:32 10° N 03:32:37 60° WNW 03:34:17 40° SW
CZ-2C R/B 3.2 03:28:12 10° NNE 03:33:17 56° E 03:38:23 10° S
Resurs 1-4 Rocket 4.2 03:31:35 10° NNW 03:33:02 12° NW 03:33:02 12° NW
Cosmos 1898 Rocket 3.4 03:28:27 10° NNW 03:33:40 64° WSW 03:38:52 10° S
CZ-2D R/B 4.2 03:35:12 10° NW 03:36:32 11° NW 03:36:32 11° NW
ASTEX 1 3.9 03:33:37 10° N 03:38:12 37° WNW 03:38:38 36° W
CZ-4C R/B 4.0 03:32:43 10° NW 03:39:15 43° NE 03:46:50 10° ESE
Cosmos 1869 Rocket 3.9 03:36:54 10° NNW 03:40:48 42° W 03:40:48 42° W
Cosmos 858 Rocket 4.3 03:36:09 10° NNW 03:41:21 75° WSW 03:46:31 10° SSE
MSX 3.8 03:36:25 10° N 03:42:10 67° WNW 03:45:54 22° SSW
IRIDIUM 104 4.3 03:40:13 10° N 03:45:21 58° W 03:50:24 10° SSW
PSLV R/B 3.6 03:42:55 10° NNE 03:47:08 75° ESE 03:50:59 12° S
Landsat 5 3.6 03:42:49 10° S 03:47:16 58° WSW 03:51:40 10° NNW
Cosmos 2228 Rocket 3.9 03:48:01 31° WNW 03:48:03 31° WNW 03:52:00 10° N
Cosmos 1862 Rocket 4.1 03:47:32 10° S 03:51:49 58° E 03:56:06 10° NNE
Cosmos 1605 Rocket 4.5 03:47:34 10° NNW 03:53:25 39° W 03:58:55 11° SSW
Cosmos 1937 Rocket 3.4 03:49:40 10° NNW 03:54:44 57° WSW 03:59:44 10° S
CZ-4C R/B 3.5 03:55:00 38° W 03:55:00 38° W 03:58:06 10° NNW
Lacrosse 5 3.2 03:53:01 17° WNW 03:56:02 30° N 04:00:29 10° NE
H-2A R/B 2.3 03:53:36 10° S 03:57:50 47° W 04:02:11 10° NNW
X-37B 2.6 03:59:50 16° S 03:59:50 16° S 04:01:12 10° SSE
ERBS 3.4 03:58:34 27° NW 03:59:25 31° NNW 04:02:28 10° NE
Cosmos 2208 Rocket 4.3 03:54:51 10° S 04:00:02 68° ESE 04:05:12 10° NNE
Cosmos 841 Rocket 3.5 03:56:29 10° SSW 04:01:38 85° ESE 04:06:56 10° NNE
FALCON 9 DEB 3.1 04:01:05 38° WSW 04:02:14 74° NNW 04:05:41 10° ENE
USA 32 4.1 03:57:07 10° NNW 04:02:17 58° W 04:07:25 10° SSW
ATLAS 5 CENTAUR R/B 4.3 03:59:58 10° NNW 04:02:33 14° N 04:05:19 10° NE
Cosmos 2016 Rocket 4.2 03:56:30 10° N 04:02:37 71° E 04:08:41 10° SSE
ERS-2 2.0 03:59:23 10° S 04:03:01 65° WSW 04:06:41 10° NNW
Cosmos 1743 3.2 04:00:26 10° N 04:04:13 62° E 04:07:59 10° SSE
ARIANE 5 R/B 3.7 04:00:28 10° N 04:04:29 24° WNW 04:05:49 21° W
Cosmos 2061 Rocket 4.3 03:58:19 10° N 04:04:47 73° E 04:11:12 10° SSE
Cosmos 1814 Rocket 4.2 04:00:39 10° SSW 04:05:51 75° ESE 04:11:09 10° NNE
SL-4 R/B 2.3 04:03:35 27° WSW 04:06:05 88° NNW 04:10:55 10° ENE
CZ-2C R/B 3.6 04:03:41 10° N 04:07:05 31° WNW 04:08:04 27° W
Cosmos 1000 Rocket 4.4 04:01:08 10° S 04:07:20 88° W 04:13:31 10° N
Cosmos 1763 Rocket 3.8 04:04:27 22° SW 04:07:39 48° WNW 04:12:48 10° NNE
Cosmos 2333 Rocket 3.9 04:03:37 10° S 04:08:46 35° ESE 04:13:56 10° NE
USA 305 4.2 04:10:20 14° WNW 04:13:28 34° N 04:17:22 10° ENE
Cosmos 1544 3.9 04:10:58 10° N 04:14:30 53° ENE 04:18:00 10° SSE
USA 267 3.5 04:09:50 10° NE 04:16:15 61° NNW 04:21:29 16° W
NOSS 3-4 (A) 3.9 04:09:31 10° NW 04:16:24 58° WSW 04:24:00 10° SSE
NOSS 3-4 (C) 3.9 04:09:37 10° NW 04:16:31 59° WSW 04:24:07 10° SSE
USA 306 4.2 04:14:32 13° WNW 04:17:53 34° N 04:21:46 10° ENE
CZ-4B R/B 1.2 04:19:37 10° S 04:22:47 67° WSW 04:26:03 10° NNW
Cosmos 1725 Rocket 4.1 04:18:20 10° N 04:24:33 85° E 04:30:44 10° S
ADEOS 3.6 04:19:27 10° NNE 04:24:44 84° ESE 04:29:57 10° SSW
Cosmos 540 Rocket 3.5 04:20:59 10° SW 04:26:05 62° WNW 04:31:15 10° NNE
ADEOS Rocket 3.1 04:20:39 10° S 04:27:11 57° W 04:33:06 10° NNW
Cosmos 1975 3.8 04:23:27 10° N 04:27:24 51° ENE 04:31:17 10° SSE
IDEFIX/ARIANE 42P 4.0 04:25:29 10° NNW 04:29:18 21° WNW 04:32:00 14° W
COSMO-SKYMED 1 3.5 04:25:38 10° SSE 04:29:51 53° ENE 04:34:06 10° N
PAYLOAD A 4.2 04:25:42 10° N 04:30:06 41° WNW 04:34:31 10° SW
Cosmos 2100 Rocket 4.3 04:26:39 10° NNW 04:32:42 47° W 04:38:43 10° SSW
FENGYUN 3A 3.8 04:30:29 10° NNE 04:35:55 84° ESE 04:41:20 10° SSW
Cosmos 2360 Rocket 2.2 04:30:39 10° SW 04:36:17 66° WNW 04:41:57 10° NNE
deb Chang Zheng 4 3.5 04:33:04 10° N 04:37:21 74° WNW 04:41:36 10° SSW
Cosmos 1570 Rocket 4.3 04:32:37 10° SW 04:37:48 52° WNW 04:43:04 10° NNE
Cosmos 1459 Rocket 4.2 04:33:57 10° NNW 04:39:39 44° W 04:45:18 10° SSW
SAR-Lupe-4 3.7 04:36:26 10° S 04:39:56 53° WSW 04:43:29 10° NNW
ATLAS 2AS CENTAUR R/B 3.0 04:33:00 10° NW 04:40:06 49° WSW 04:46:38 10° S
Cosmos 1802 Rocket 4.1 04:35:45 10° NNW 04:41:44 52° W 04:47:47 10° SSW
Cosmos 1484 Rocket 2.8 04:38:34 10° N 04:42:34 75° WNW 04:46:34 10° SSW
Cosmos 1782 Rocket 4.2 04:39:22 10° N 04:43:50 63° ENE 04:48:15 10° SSE
Cosmos 1908 Rocket 3.5 04:40:46 10° NNW 04:45:15 72° W 04:49:42 10° S
USA 307 4.1 04:43:03 10° WNW 04:47:01 36° N 04:50:58 10° ENE
Cosmos 44 Rocket 3.6 04:42:27 10° WSW 04:47:05 50° NW 04:51:52 10° NNE
Cosmos 1703 Rocket 3.7 04:43:36 10° S 04:47:56 80° E 04:52:18 10° NNE
Cosmos 1980 Rocket 4.2 04:45:20 10° WNW 04:48:01 13° NNW 04:50:42 10° N
SJ-12 4.4 04:45:05 10° NNE 04:49:13 66° ESE 04:53:19 10° S
USA 308 4.1 04:46:23 10° WNW 04:50:22 37° N 04:54:20 10° ENE
Okean 1 3.4 04:46:49 10° SSW 04:50:49 60° WNW 04:54:50 10° N
USA 234 3.9 04:46:36 10° SSE 04:52:29 36° SW 04:58:25 10° WNW
Okean 1-7 3.1 04:48:54 10° S 04:53:09 82° E 04:57:26 10° N
Cosmos 1844 Rocket 3.1 04:48:16 10° NW 04:53:33 42° WSW 04:58:50 10° S
Cosmos 1515 3.6 04:50:15 10° SSW 04:54:01 71° W 04:57:50 10° N
Cosmos 2123 Rocket 4.0 04:48:45 10° SSW 04:54:57 65° WNW 05:01:15 10° N
Meteor 1-31 Rocket 2.7 04:51:18 10° N 04:55:07 66° WNW 04:58:57 10° SSW
Cosmos 2322 Rocket 3.1 04:50:41 10° WSW 04:55:40 31° NW 05:00:43 10° NNE
Cosmos 2278 Rocket 3.3 04:50:26 10° NNW 04:55:57 49° NE 05:01:25 10° SE
Cosmos 1844 3.9 04:53:51 10° NW 04:59:08 46° WSW 05:04:25 10° S
USA 276 2.8 04:58:10 10° W 05:01:14 40° SSW 05:04:16 10° SE
Cosmos 1437 Rocket 3.2 04:58:05 10° SW 05:01:39 37° WNW 05:05:17 10° N
Meteor 2-9 Rocket 4.1 04:59:38 10° NNW 05:05:05 66° W 05:10:23 10° S
SL-16 R/B 3.5 05:02:55 10° W 05:07:21 23° NW 05:11:50 10° N
